Weather History for Jacksonville, FL

Change the Weather History Date:

Saturday, January 19, 2013

  Actual Average Record
Temperature  
Mean Temperature 54 °F 53 °F  
Max Temperature 64 °F 65 °F 83 °F (1937)
Min Temperature 43 °F 41 °F 19 °F (1977)
Degree Days  
Heating Degree Days 11 12  
Month to date heating degree days 100 241  
Since 1 July heating degree days 576 737  
Cooling Degree Days 0 0  
Month to date cooling degree days 33 0  
Year to date cooling degree days 33 0  
Growing Degree Days 4 (Base 50)    
Moisture  
Dew Point 46 °F    
Average Humidity 79    
Maximum Humidity 93    
Minimum Humidity 65    
Precipitation  
Precipitation 0.00 in 0.11 in 2.90 in (1991)
Month to date precipitation 0.82 1.91  
Year to date precipitation 0.82 1.91  
Snow  
Snow 0.00 in 0.00 in T in (1977)
Month to date snowfall 0.0 0.0  
Since 1 July snowfall 0.0 T  
Snow Depth 0.00 in    
Sea Level Pressure  
Sea Level Pressure 30.31 in    
Wind  
Wind Speed 8 mph (NNE)    
Max Wind Speed 18 mph    
Max Gust Speed 24 mph    
Visibility 9 miles    
Events      
T = Trace of Precipitation, MM = Missing Value Source: NWS Daily Summary

Daily Weather History Graph

Daily Weather History Graph

Search for Another Location

Airport:

Trip Planner

Search our weather history database for the weather conditions in past years. The results will help you decide how hot, cold, wet, or windy it might be!

Date:

Astronomy

Jan. 19, 2013 Rise Set
Actual Time 7:23 AM EST 5:52 PM EST
Civil Twilight 6:57 AM EST 6:17 PM EST
Nautical Twilight 6:28 AM EST 6:47 PM EST
Astronomical Twilight 5:59 AM EST 7:15 PM EST
Moon 12:12 PM EST (1/19) 1:02 AM EST (1/19)
Length of Visible Light 11h 20m
Length of Day
10h 28m
First Quarter, 57% of the Moon is Illuminated
Jan 19
First Quarter
Jan 26
Full
Feb 3
Last Quarter
Feb 10
New
Feb 17
First Quarter

Hourly Weather History & Observations

Time (EST) Temp. Windchill Dew Point Humidity Pressure Visibility Wind Dir Wind Speed Gust Speed Precip Events Conditions
12:56 AM 45.0 °F 41.2 °F 37.9 °F 76% 30.37 in 10.0 mi North 6.9 mph - N/A   Scattered Clouds
1:56 AM 45.0 °F 41.2 °F 37.9 °F 76% 30.36 in 10.0 mi North 6.9 mph - N/A   Scattered Clouds
2:56 AM 46.0 °F 41.9 °F 37.9 °F 73% 30.36 in 10.0 mi North 8.1 mph - N/A   Partly Cloudy
3:56 AM 45.0 °F 40.6 °F 37.0 °F 74% 30.35 in 10.0 mi North 8.1 mph - N/A   Scattered Clouds
4:56 AM 44.1 °F 40.8 °F 37.0 °F 76% 30.35 in 10.0 mi North 5.8 mph - N/A   Partly Cloudy
5:56 AM 44.1 °F 41.5 °F 37.0 °F 76% 30.35 in 10.0 mi North 4.6 mph - N/A   Scattered Clouds
6:56 AM 44.1 °F 40.8 °F 36.0 °F 73% 30.35 in 10.0 mi North 5.8 mph - N/A   Mostly Cloudy
7:56 AM 44.1 °F 40.8 °F 37.0 °F 76% 30.36 in 10.0 mi North 5.8 mph - N/A   Scattered Clouds
8:56 AM 50.0 °F - 41.0 °F 71% 30.37 in 10.0 mi North 8.1 mph - N/A   Scattered Clouds
9:56 AM 57.9 °F - 48.9 °F 72% 30.38 in 10.0 mi NE 18.4 mph 24.2 mph N/A   Scattered Clouds
10:56 AM 61.0 °F - 50.0 °F 67% 30.38 in 10.0 mi NNE 12.7 mph - N/A   Scattered Clouds
11:56 AM 62.1 °F - 50.0 °F 65% 30.36 in 10.0 mi NE 13.8 mph - N/A   Scattered Clouds
12:56 PM 63.0 °F - 52.0 °F 67% 30.32 in 10.0 mi ENE 13.8 mph 19.6 mph N/A   Scattered Clouds
1:37 PM 62.6 °F - 51.8 °F 68% 30.29 in 10.0 mi ENE 13.8 mph - N/A   Mostly Cloudy
1:56 PM 62.1 °F - 52.0 °F 70% 30.29 in 10.0 mi ENE 15.0 mph 20.7 mph N/A   Mostly Cloudy
2:56 PM 61.0 °F - 52.0 °F 72% 30.26 in 10.0 mi NE 13.8 mph - N/A   Mostly Cloudy
3:38 PM 59.0 °F - 51.8 °F 77% 30.25 in 10.0 mi NE 12.7 mph - N/A   Mostly Cloudy
3:56 PM 59.0 °F - 52.0 °F 78% 30.25 in 10.0 mi NE 9.2 mph - N/A   Mostly Cloudy
4:56 PM 57.0 °F - 52.0 °F 83% 30.26 in 10.0 mi NE 10.4 mph - N/A   Overcast
5:56 PM 57.0 °F - 52.0 °F 83% 30.26 in 10.0 mi NNE 6.9 mph - N/A   Overcast
6:56 PM 55.9 °F - 52.0 °F 87% 30.26 in 10.0 mi North 4.6 mph - N/A   Overcast
7:51 PM 55.4 °F - 51.8 °F 88% 30.26 in 10.0 mi Calm Calm - N/A   Scattered Clouds
7:56 PM 55.0 °F - 51.1 °F 86% 30.26 in 10.0 mi Calm Calm - N/A   Scattered Clouds
8:56 PM 54.0 °F - 51.1 °F 90% 30.25 in 8.0 mi North 4.6 mph - N/A   Mostly Cloudy
9:56 PM 53.1 °F - 51.1 °F 93% 30.24 in 8.0 mi Calm Calm - N/A   Mostly Cloudy
10:56 PM 53.1 °F - 51.1 °F 93% 30.23 in 3.0 mi Calm Calm - N/A   Mostly Cloudy
11:56 PM 53.1 °F - 51.1 °F 93% 30.21 in 3.0 mi Calm Calm - N/A   Mostly Cloudy